Location: Bonningues
(50.7927°N, 2.0150°E)
Time: 05:36:27
(UTC+00:00)

Cosmos 1515 - Pass Details

Date: 08 August 2020
Orbit: 505 x 517 km, 82.5° (Epoch: 19 September)

Event Time Altitude Azimuth Distance (km) Brightness Sun altitude
Rises 21:11:13 0° 355° (N) 2,652 8.2 -14.1°
Reaches altitude 10° 21:13:29 10° 4° (N) 1,758 7.1 -14.4°
Maximum altitude 21:17:06 38° 73° (ENE) 806 4.4 -14.7°
Enters shadow 21:18:35 27° 120° (ESE) 1,028 4.6 -14.9°
